Weather History for KHPN - April, 2012

Change the Weather History Date:

Sunday, April 1, 2012

  Actual Average Record
Temperature  
Mean Temperature 44 °F -  
Max Temperature 51 °F 50 °F 76 °F (1978)
Min Temperature 39 °F 34 °F 27 °F (2003)
Degree Days  
Heating Degree Days 20    
Moisture  
Dew Point 38 °F    
Average Humidity 80    
Maximum Humidity 97    
Minimum Humidity 54    
Precipitation  
Precipitation 0.30 in - - ()
Sea Level Pressure  
Sea Level Pressure 29.77 in    
Wind  
Wind Speed 2 mph (SW)    
Max Wind Speed 8 mph    
Max Gust Speed -    
Visibility 7 miles    
Events Rain    
Averages and records for this station are not official NWS values.
T = Trace of Precipitation, MM = Missing Value Source: NWS Daily Summary

Daily Weather History Graph

Daily Weather History Graph

Search for Another Location

Airport or City:

Trip Planner

Search our weather history database for the weather conditions in past years. The results will help you decide how hot, cold, wet, or windy it might be!

Date:

Astronomy

Apr. 01, 2012 Rise Set
Actual Time 6:37 AM EDT 7:20 PM EDT
Civil Twilight 6:09 AM EDT 7:48 PM EDT
Nautical Twilight 5:36 AM EDT 8:21 PM EDT
Astronomical Twilight 5:02 AM EDT 8:55 PM EDT
Moon 1:45 PM EDT (4/1) 3:15 AM EDT (4/1)
Length of Visible Light 13h 38m
Length of Day
12h 42m
Waxing Gibbous, 69% of the Moon is Illuminated
Apr 1
Waxing Gibbous
Apr 6
Full
Apr 13
Last Quarter
Apr 21
New
Apr 29
First Quarter

Hourly Weather History & Observations

Time (EDT) Temp. Windchill Dew Point Humidity Pressure Visibility Wind Dir Wind Speed Gust Speed Precip Events Conditions
12:56 AM 39.9 °F - 35.1 °F 83% 29.90 in 10.0 mi Calm Calm - N/A   Mostly Cloudy
1:56 AM 39.9 °F - 35.1 °F 83% 29.90 in 10.0 mi Calm Calm - N/A   Mostly Cloudy
2:56 AM 39.9 °F - 36.0 °F 86% 29.88 in 10.0 mi Calm Calm - N/A   Mostly Cloudy
3:56 AM 39.2 °F - 35.6 °F 87% 29.87 in 10.0 mi Calm Calm - N/A   Mostly Cloudy
4:56 AM 39.9 °F - 36.0 °F 86% 29.88 in 10.0 mi Calm Calm - N/A   Mostly Cloudy
5:56 AM 39.2 °F 37.0 °F 35.6 °F 87% 29.86 in 10.0 mi WNW 3.5 mph - N/A   Mostly Cloudy
6:56 AM 39.9 °F - 37.0 °F 89% 29.87 in 10.0 mi Calm Calm - N/A   Mostly Cloudy
7:56 AM 42.1 °F - 37.0 °F 82% 29.87 in 10.0 mi Calm Calm - N/A   Overcast
8:56 AM 44.1 °F - 36.0 °F 73% 29.87 in 10.0 mi Calm Calm - N/A   Overcast
9:56 AM 46.0 °F 44.8 °F 35.1 °F 66% 29.86 in 10.0 mi Variable 3.5 mph - N/A   Overcast
10:56 AM 46.9 °F - 33.1 °F 59% 29.85 in 10.0 mi Variable 5.8 mph - N/A   Overcast
11:56 AM 50.0 °F - 35.1 °F 57% 29.81 in 10.0 mi South 8.1 mph - N/A   Mostly Cloudy
12:56 PM 48.9 °F - 33.1 °F 54% 29.79 in 10.0 mi WSW 4.6 mph - N/A   Mostly Cloudy
1:56 PM 50.0 °F - 33.8 °F 54% 29.75 in 10.0 mi SW 5.8 mph - N/A   Overcast
2:56 PM 48.9 °F - 35.1 °F 59% 29.74 in 10.0 mi WSW 4.6 mph - N/A   Mostly Cloudy
3:56 PM 50.0 °F - 36.0 °F 59% 29.71 in 10.0 mi SSW 6.9 mph - N/A   Mostly Cloudy
4:56 PM 46.0 °F 43.1 °F 42.1 °F 86% 29.68 in 5.0 mi South 5.8 mph - 0.04 in Rain Light Rain
5:56 PM 44.6 °F - 42.8 °F 93% 29.68 in 3.0 mi Calm Calm - N/A Rain Rain
6:00 PM 44.6 °F 43.1 °F 42.8 °F 93% 29.69 in 3.0 mi West 3.5 mph - 0.01 in Rain Rain
6:06 PM 44.6 °F 42.2 °F 42.8 °F 93% 29.69 in 2.5 mi WSW 4.6 mph - 0.02 in Rain Rain
6:56 PM 45.0 °F 43.5 °F 43.0 °F 93% 29.69 in 1.5 mi South 3.5 mph - 0.12 in Rain Rain
7:56 PM 45.0 °F - 43.0 °F 93% 29.66 in 5.0 mi Calm Calm - 0.05 in   Overcast
8:56 PM 45.0 °F - 44.1 °F 97% 29.65 in 3.0 mi Calm Calm - 0.00 in   Overcast
9:56 PM 46.0 °F - 44.1 °F 93% 29.65 in 2.0 mi Calm Calm - 0.00 in   Light Drizzle
10:56 PM 45.0 °F - 43.0 °F 93% 29.64 in 2.0 mi Calm Calm - 0.04 in Rain Light Rain
11:56 PM 45.0 °F 41.2 °F 43.0 °F 93% 29.62 in 5.0 mi NW 6.9 mph - 0.05 in Rain Light Rain